Tracking 19177 objects as of 25-May-2018
HD Live streaming from Space Station
objects crossing your sky now

FENGYUN 1C DEB

Track FENGYUN 1C DEB now!
10-day predictions


NORAD ID: 30465
Int'l Code: 1999-025AGC
Perigee: 828.3 km
Apogee: 862.2 km
Inclination: 99.0 °
Period: 101.7 minutes
Semi major axis: 7216 km
RCS: 0.029 m2 (small)
Launch date: May 10, 1999
Source: People's Republic of China (PRC)
Launch site: Taiyaun Space Center, China (TSC)

Note: This is SATELLITE DEBRIS
aabbcc
Your satellite tracking list
Your tracking list is empty




NASA's NSSDC Master Catalog

Two Line Element Set (TLE):
1 30465U 99025AGC 18144.65986296  .00000540  00000-0  29502-3 0  9992
2 30465  99.0090 172.8674 0023455  26.3091  95.7635 14.16233295582367
Source of the keplerian elements: AFSPC